Location: Krasnoyarskiy Pitomnik
(51.1333°N, 71.6167°E)
Time: 12:02:37
(UTC+00:00)

Landsat 5 - Pass Details

Date: 01 June 2022
Orbit: 528 x 649 km, 98.2° (Epoch: 02 July)

Event Time Altitude Azimuth Distance (km) Brightness Sun altitude
Rises 16:00:03 0° 1° (N) 2,915 7.8 -5.6°
Reaches altitude 10° 16:02:58 10° 340° (NNW) 2,024 7.5 -5.9°
Maximum altitude 16:05:35 16° 303° (WNW) 1,684 7.2 -6.2°
Drops below altitude 10° 16:08:14 10° 267° (W) 2,043 6.8 -6.4°
Sets 16:11:12 0° 246° (WSW) 2,958 7.3 -6.7°
